Weather Roundup
Issued by NWS

Home | Current Version | Previous Version | Text Only | Print | Product List | Glossary On
Versions: 1 2 3 4 5 6 7 8 9 10 11 12 13 14 15 16 17 18 19 20 21 22 23 24 25 26 27 28 29 30 31 32 33 34 35 36 37 38 39 40 41 42 43 44 45 46 47 48 49 50
475
NZUS93 KARX 090159
HRRWXR

CURRENT HOURLY OBSERVATIONS ACROSS
MUCH OF THE UPPER MISSISSIPPI VALLEY
NATIONAL WEATHER SERVICE LA CROSSE WI
800 PM CST MON FEB 08 2016


...SOUTHEAST MINNESOTA...


CITY           SKY/WX    TMP DP  RH WIND       PRES   REMARKS
ROCHESTER      LGT SNOW  13   8  81 NW22      29.88F WCI  -6
ROCHESTER/MAYO CLOUDY    14  10  84 NW16G24   29.89F WCI  -2
WINONA         CLOUDY    18  12  79 NW10      29.92F WCI   6
AUSTIN         FLURRIES  14   9  79 NW17G29   29.90F WCI  -3
ALBERT LEA     LGT SNOW  14   9  79 NW15G22   29.92F WCI  -1
DODGE CENTER   LGT SNOW  12   9  85 NW17G23   29.89F WCI  -5
PRESTON        LGT SNOW  12   8  83 NW14      29.88F WCI  -3
OWATONNA       LGT SNOW  14   9  79 NW20      29.94S WCI  -3
FARIBAULT      LGT SNOW  14   9  79 NW13G22   29.95F WCI   0
$$

...ELSEWHERE IN MINNESOTA...


CITY           SKY/WX    TMP DP  RH WIND       PRES   REMARKS
MINNEAPOLIS    FLURRIES  14   7  73 NW20      29.97S WCI  -3
INTNL FALLS    CLOUDY     4  -3  73 NW16      30.05S WCI -15
DULUTH         LGT SNOW   6  -1  73 NW22G33   29.88F BLWGSNOWWCI -15
RED WING       FLURRIES  16   9  73 N7        29.94S WCI   6
REDWOOD FALLS  PTCLDY    12   2  64 NW18G32   30.07F WCI  -6
MANKATO        CLOUDY   N/A N/A N/A NW24G35   29.98S
WORTHINGTON    MOCLDY    12   7  79 N24       30.05F WCI  -8
FAIRMONT       CLOUDY    12   3  67 NW30      29.99S WCI  -9
$$

...SOUTHWEST WISCONSIN...


CITY           SKY/WX    TMP DP  RH WIND       PRES   REMARKS
LA CROSSE      LGT SNOW  15  10  80 NW12      29.90S WCI   2
PRAIRIE DU CHI LGT SNOW  16  10  78 NW6       29.89F WCI   7
BOSCOBEL       FLURRIES  16   9  74 NW7       29.88S WCI   6
LONE ROCK      NOT AVBL
PLATTEVILLE    CLOUDY    17  10  77 NW16      29.83S WCI   1
FORT MC COY    LGT SNOW  15  11  85 W8        29.88R WCI   3
VIROQUA        CLOUDY    13   9  87 NW13      29.83S WCI  -2
WIS DELLS      CLOUDY    15   8  73 NW12G17   29.81S WCI   2
$$

...ELSEWHERE IN WISCONSIN...


CITY           SKY/WX    TMP DP  RH WIND       PRES   REMARKS
MILWAUKEE      LGT SNOW  23  19  85 NW15      29.72S FOG     WCI  10
MADISON        FLURRIES  18   9  68 NW15G23   29.78S WCI   4
GREEN BAY      LGT SNOW  24  20  84 N13       29.74S FOG     WCI  12
EAU CLAIRE     LGT SNOW  12   7  79 NW12G22   29.89S WCI  -2
BLACK RVR FLS  LGT SNOW  15   9  79 NW7       29.87R WCI   5
MEDFORD        FLURRIES  11   7  82 NW15      29.79R WCI  -5
WAUSAU         LGT SNOW  16  10  77 N10G22    29.76S WCI   4
WIS RAPIDS     LGT SNOW  15   8  73 NW14      29.81S WCI   0
MARSHFIELD     LGT SNOW  13   7  77 NW20      29.79R WCI  -5
RICE LAKE      CLOUDY    12   5  74 NW9G18    29.91S HAZE    WCI  -1
$$

...NORTHEAST IOWA...


CITY           SKY/WX    TMP DP  RH WIND       PRES   REMARKS
WATERLOO       LGT SNOW  15  10  80 NW21      29.92F WCI  -2
DUBUQUE        CLOUDY    15   7  70 N14G24    29.84S WCI   0
DECORAH        FLURRIES  14   9  79 NW16G23   29.87S WCI  -2
MASON CITY     LGT SNOW  14  10  84 NW26G35   29.94F FOG     WCI  -6
CHARLES CITY   CLOUDY    14  12  92 NW20      29.92F WCI  -3
OELWEIN        LGT SNOW  14  12  92 NW16      29.90S WCI  -2
$$

...ELSEWHERE IN IOWA...


CITY           SKY/WX    TMP DP  RH WIND       PRES   REMARKS
DES MOINES     FLURRIES  20  10  65 N18G28    30.00F WCI   5
IOWA CITY      FLURRIES  17   9  70 NW20G28   29.94S WCI   1
FORT DODGE     CLOUDY    16   5  62 NW17G29   30.02R WCI   0
MARSHALLTOWN   LGT SNOW  16  11  80 NW29G35   29.95F WCI  -4
CEDAR RAPIDS   LGT SNOW  15  13  91 NW18      29.90F FOG     WCI  -2
$$

...NORTHERN ILLINOIS...


CITY           SKY/WX    TMP DP  RH WIND       PRES   REMARKS
CHICAGO-OHARE  CLOUDY    25  18  74 NW16      29.74S WCI  12
CHICAGO-MIDWAY FLURRIES  26  20  77 NW10      29.75S WCI  16
MOLINE         CLOUDY    18   9  68 NW23G32   29.88S WCI   0
ROCKFORD       CLOUDY    23  14  68 NW16      29.80S WCI  10
PEORIA         CLOUDY    20  11  68 NW15G25   29.87S WCI   6
$$

NOTE: "FAIR" INDICATES FEW OR NO CLOUDS BELOW 12,000 FEET WITH NO
SIGNIFICANT WEATHER AND/OR OBSTRUCTIONS TO VISIBILITY. WIND
SPEEDS ARE IN MILES-PER-HOUR.




USA.gov is the U.S. government's official web portal to all federal, state and local government web resources and services.